Temp
60 61 61 61 50 44 38 47 51 54 57 60 64 62 58 61 58 51 67 69 72 72 72 72 73 73 74 74 74 74 74 74 74 74 74 74 74 74 75 75 75 76 77 76 76 75 75 74 74
61 65 61 52 42 36 42 49 51 54 60 61 63 62 59 58 66 64 66 70 73 72 72 71 72 73 73 73 73 74 74 74 74 74 74 74 74 74 74 74 75 75 76 76 76 75 75 74 72
64 66 56 45 38 40 42 51 53 58 62 61 60 62 60 59 65 66 69 72 72 72 71 71 72 72 73 73 73 74 73 73 73 74 74 74 75 74 74 74 74 75 76 76 76 75 73 72 71
62 59 53 45 41 46 49 53 52 57 60 63 59 56 62 66 65 68 71 72 70 71 71 70 71 72 73 73 73 73 72 72 73 73 74 75 75 74 74 74 74 75 75 75 75 73 72 70 70
57 52 44 38 42 51 55 55 54 54 56 58 59 54 59 65 68 68 68 67 68 69 70 70 69 72 72 73 73 72 72 72 73 73 73 74 74 73 72 72 73 73 73 74 73 72 71 70 69
52 49 40 38 45 54 56 54 56 57 57 58 57 57 59 66 66 64 64 63 65 66 68 69 71 71 71 72 71 71 71 72 72 72 72 73 72 71 71 71 72 72 72 72 71 71 70 70 69
50 45 39 40 47 52 56 58 56 56 56 56 59 54 60 62 64 63 63 63 63 64 66 66 66 69 69 69 69 69 70 70 71 71 71 70 70 70 71 71 71 71 71 71 71 70 69 69 68
53 49 40 44 46 49 57 59 58 57 56 62 61 54 57 61 63 63 62 62 62 61 62 63 64 65 65 66 68 68 69 69 69 69 69 69 69 70 70 70 70 71 71 70 70 69 69 68 67
54 46 44 45 48 54 57 54 58 61 57 59 61 60 62 62 63 61 60 60 60 59 59 60 62 63 64 66 68 68 69 68 68 68 68 65 63 65 65 68 69 70 69 69 68 68 66 66 66
51 46 49 57 55 53 56 56 58 58 56 58 58 61 63 62 61 59 58 57 58 58 58 60 61 62 64 67 64 64 66 64 64 63 63 63 63 63 65 66 68 68 68 67 66 66 65 62 58
51 53 57 59 61 59 56 55 59 56 53 57 57 59 61 61 61 60 59 59 59 60 61 61 61 62 63 64 62 61 62 62 62 63 61 61 62 61 61 59 61 60 63 60 61 60 59 57 57
50 59 61 59 59 58 57 58 57 56 58 61 61 62 61 60 60 60 60 59 59 59 60 61 62 63 63 62 61 61 62 61 61 62 63 62 60 60 59 58 58 57 57 56 56 56 56 56 56
54 59 63 62 61 58 62 59 56 52 56 61 62 61 60 60 59 61 61 61 61 59 59 61 62 62 62 61 60 60 60 61 61 62 62 61 60 58 57 56 56 56 56 55 55 54 55 54 54
61 57 57 61 58 61 60 58 58 55 58 58 59 57 57 58 59 59 58 58 60 61 61 64 62 62 62 60 60 59 60 61 61 61 61 61 59 56 56 55 55 54 55 54 54 53 52 51 52
62 55 57 58 59 57 61 52 54 56 58 55 56 56 57 58 59 61 61 59 60 61 63 62 61 61 61 60 60 60 60 60 59 59 59 59 57 56 55 54 53 53 53 53 52 51 50 50 51
55 54 48 55 57 57 58 48 52 56 56 54 55 56 57 58 60 61 60 60 59 59 60 61 65 61 59 59 59 59 59 59 58 58 57 58 57 56 54 53 52 52 52 52 51 50 48 47 48
48 41 46 51 60 58 55 47 53 57 57 54 54 55 56 57 59 61 60 59 59 59 60 60 61 60 59 58 58 58 58 58 57 56 56 56 56 56 54 53 52 52 51 50 51 48 48 46 47
43 44 41 45 54 54 49 49 52 55 56 54 53 54 55 56 59 62 61 60 59 59 61 60 59 58 57 57 56 56 56 56 57 57 55 56 55 55 54 52 51 51 49 48 48 47 45 45 45
50 48 45 48 55 54 52 51 52 55 56 53 53 54 55 57 61 62 61 61 59 59 59 60 58 57 57 56 55 54 54 56 57 57 56 56 55 54 53 51 50 49 48 47 47 45 45 44 43
52 48 46 52 55 53 47 48 51 54 56 57 56 56 56 57 58 60 60 60 60 60 60 59 59 57 58 60 56 56 54 54 58 57 55 55 54 54 52 50 49 48 47 46 46 45 43 42 42
48 46 46 50 52 50 48 45 48 54 56 58 59 60 59 59 57 59 60 60 61 59 59 59 59 58 59 59 56 53 53 53 54 51 51 53 54 53 52 50 48 47 46 45 44 44 44 41 42
45 53 51 49 47 41 47 38 44 48 54 55 58 56 58 59 60 60 60 59 60 59 58 59 59 58 59 58 59 55 55 51 52 53 54 52 53 52 51 49 47 46 45 44 44 45 43 42 41
51 54 51 49 45 43 43 41 45 46 47 54 58 59 60 61 62 60 61 62 61 58 57 57 58 58 59 59 59 56 53 52 51 50 51 50 50 50 49 48 46 45 44 44 45 44 43 41 40
56 52 49 46 43 36 42 40 42 45 52 53 59 61 62 60 60 62 62 60 58 56 57 57 58 58 59 59 57 56 53 51 51 49 49 48 47 46 47 47 45 45 45 46 45 45 43 41 41
51 45 34 34 32 34 44 40 44 53 54 56 56 59 61 62 56 57 57 57 56 57 58 58 58 58 59 58 58 55 54 55 54 52 50 48 45 44 45 46 45 45 45 47 45 45 45 40 39
47 46 34 31 29 35 43 38 47 53 55 56 56 56 57 56 56 57 59 58 57 57 58 58 59 59 58 57 58 56 57 56 55 54 51 50 48 47 47 48 48 46 46 46 46 44 43 41 39
48 43 48 36 34 29 37 44 52 51 52 53 52 52 51 51 54 57 56 57 56 57 58 59 59 59 58 58 58 58 57 55 54 52 51 48 48 50 49 48 47 45 46 47 46 44 43 41 38
50 53 41 38 32 30 35 36 40 50 51 50 52 51 50 50 52 54 56 56 57 58 58 58 59 59 59 56 56 55 52 53 52 51 50 49 50 51 48 47 47 47 47 47 45 43 41 39 38
46 44 43 43 36 32 28 36 47 50 52 50 52 52 52 51 52 54 56 57 58 58 58 57 57 58 54 54 51 50 50 50 51 51 51 51 50 49 47 46 47 47 46 45 44 42 39 39 38
49 48 45 34 36 33 30 35 51 51 52 52 55 54 52 53 53 53 55 55 57 57 57 57 57 56 54 51 49 50 50 51 50 49 50 48 46 47 48 48 47 47 46 45 42 39 42 38 36
MSLP
1012.46 1012.52 1012.65 1013.06 1014.96 1015.63 1015.12 1013.87 1012.73 1012.01 1011.37 1010.99 1010.78 1011.37 1011.78 1012.12 1012.32 1013.34 1012.74 1012.60 1012.59 1013.38 1013.90 1014.45 1014.80 1014.87 1015.09 1015.57 1015.92 1016.31 1016.66 1017.26 1017.79 1018.42 1018.60 1018.77 1019.09 1019.14 1019.34 1019.52 1019.64 1019.72 1019.87 1020.08 1020.17 1020.36 1020.38 1021.01 1021.32
1012.73 1012.65 1013.19 1014.37 1015.62 1016.13 1014.89 1013.28 1012.68 1012.12 1011.57 1011.18 1011.09 1011.64 1011.99 1012.47 1012.74 1012.95 1012.94 1012.76 1012.93 1013.44 1014.12 1014.60 1014.96 1015.16 1015.35 1015.66 1016.26 1016.64 1016.80 1017.31 1017.86 1018.49 1018.98 1019.21 1019.40 1019.65 1019.95 1020.02 1019.96 1020.13 1020.25 1020.38 1020.37 1020.65 1020.68 1021.17 1021.53
1012.75 1012.81 1014.02 1015.24 1015.92 1015.49 1014.28 1012.88 1012.33 1011.93 1011.55 1011.34 1011.52 1011.79 1012.50 1013.05 1013.18 1013.01 1012.88 1012.98 1013.38 1013.80 1014.23 1014.80 1015.14 1015.41 1015.71 1016.15 1016.33 1016.99 1017.27 1017.29 1017.87 1018.41 1019.26 1019.43 1019.76 1020.13 1020.21 1020.41 1020.66 1020.41 1020.64 1020.74 1020.74 1020.93 1021.20 1021.63 1021.65
1013.09 1013.68 1015.08 1015.05 1015.12 1014.41 1013.50 1012.46 1012.36 1011.93 1011.73 1011.56 1011.90 1012.47 1013.19 1013.49 1013.37 1013.10 1013.08 1013.41 1013.99 1014.16 1014.46 1014.98 1015.34 1015.58 1016.03 1016.33 1016.59 1017.41 1017.77 1017.99 1018.37 1018.80 1019.46 1019.70 1020.16 1020.63 1020.71 1020.86 1021.14 1020.97 1021.01 1021.10 1021.33 1021.39 1021.66 1021.96 1022.14
1013.62 1014.48 1015.15 1015.12 1014.71 1013.47 1012.43 1012.31 1012.23 1012.03 1012.08 1012.06 1012.05 1013.03 1013.42 1013.94 1013.66 1013.75 1013.86 1014.24 1014.38 1014.58 1014.74 1015.18 1015.48 1015.75 1016.46 1016.88 1017.10 1017.90 1018.20 1018.45 1018.93 1019.26 1019.79 1020.17 1020.67 1020.90 1021.17 1021.22 1021.72 1021.60 1021.48 1021.79 1021.78 1021.84 1022.06 1022.25 1022.65
1014.22 1014.94 1015.38 1015.00 1014.05 1012.76 1012.15 1012.22 1012.25 1012.41 1012.20 1012.29 1012.52 1013.23 1014.07 1014.28 1014.23 1014.59 1014.49 1014.69 1014.64 1014.77 1015.01 1015.58 1015.70 1015.95 1016.94 1017.85 1017.63 1018.52 1018.63 1018.89 1019.41 1019.62 1020.26 1020.63 1021.02 1021.19 1021.36 1021.66 1021.73 1021.87 1022.11 1022.10 1022.23 1022.37 1022.30 1022.53 1022.94
1014.15 1015.03 1015.01 1014.38 1013.65 1012.58 1011.92 1012.01 1012.34 1012.58 1012.70 1012.86 1012.62 1013.72 1014.61 1014.75 1014.97 1015.15 1015.18 1015.08 1015.29 1015.27 1015.34 1015.73 1016.24 1016.37 1017.57 1018.36 1018.34 1019.17 1019.15 1019.24 1019.62 1019.89 1020.84 1021.14 1021.34 1021.48 1021.60 1021.75 1021.85 1022.09 1022.43 1022.60 1022.53 1022.63 1022.80 1022.83 1023.17
1013.68 1014.71 1014.73 1013.96 1013.36 1012.47 1011.87 1012.14 1012.38 1012.81 1012.90 1013.13 1013.30 1013.68 1014.62 1015.05 1015.24 1015.29 1015.53 1015.85 1016.03 1016.52 1016.29 1016.72 1016.25 1017.85 1018.17 1018.65 1019.40 1019.61 1019.53 1019.59 1019.77 1020.43 1020.99 1021.45 1021.58 1021.82 1021.92 1022.18 1022.18 1022.25 1022.67 1022.58 1022.68 1023.13 1023.13 1023.30 1023.74
1013.35 1014.37 1014.40 1013.34 1012.82 1011.88 1011.76 1012.46 1012.60 1012.82 1013.18 1013.45 1013.69 1013.62 1013.93 1014.97 1015.29 1015.70 1016.24 1016.62 1016.70 1017.05 1017.52 1017.61 1017.23 1018.13 1018.77 1019.30 1019.84 1020.10 1019.98 1019.89 1020.57 1020.97 1021.40 1021.68 1022.05 1022.26 1022.51 1022.56 1022.71 1022.86 1022.82 1022.76 1023.21 1023.40 1023.57 1023.70 1024.20
1013.42 1013.85 1013.07 1012.23 1011.84 1011.58 1012.09 1012.39 1012.64 1012.91 1013.48 1013.98 1014.06 1014.18 1014.33 1015.22 1015.66 1016.15 1016.70 1017.03 1017.31 1017.68 1017.85 1018.56 1018.78 1018.37 1019.02 1019.73 1020.11 1020.12 1020.64 1020.55 1020.78 1021.23 1021.81 1022.05 1022.24 1022.36 1022.53 1022.84 1023.16 1023.21 1023.15 1023.31 1023.62 1023.90 1024.02 1024.22 1024.61
1012.89 1012.70 1011.71 1011.34 1010.98 1011.30 1011.66 1012.26 1012.39 1012.96 1013.42 1013.61 1013.69 1014.17 1014.74 1015.40 1015.78 1016.17 1016.95 1017.35 1017.60 1017.90 1018.19 1018.78 1018.99 1019.55 1019.78 1019.95 1020.25 1020.50 1020.46 1020.85 1021.13 1021.63 1022.00 1022.24 1022.47 1022.55 1022.93 1023.12 1023.47 1023.53 1023.65 1023.85 1024.27 1024.39 1024.62 1024.70 1024.97
1012.22 1011.39 1011.38 1010.90 1010.96 1011.07 1011.62 1012.21 1012.47 1012.80 1012.90 1013.14 1013.76 1014.25 1014.91 1015.47 1016.01 1016.34 1016.82 1017.53 1017.88 1018.06 1018.36 1018.69 1019.06 1019.34 1019.88 1020.05 1020.04 1020.33 1020.61 1021.03 1021.31 1021.58 1022.05 1022.40 1022.66 1022.89 1023.18 1023.34 1023.73 1024.00 1024.29 1024.51 1024.70 1024.82 1025.18 1025.27 1025.61
1011.81 1011.08 1010.75 1010.35 1010.72 1010.97 1011.46 1012.03 1012.52 1013.09 1013.28 1013.61 1014.38 1015.04 1015.36 1015.57 1015.98 1016.49 1017.14 1017.61 1018.18 1018.41 1018.72 1018.87 1019.00 1019.19 1019.52 1019.82 1020.45 1020.65 1020.80 1021.12 1021.51 1021.65 1021.95 1022.37 1022.73 1023.03 1023.39 1023.68 1023.98 1024.23 1024.33 1024.68 1025.04 1025.51 1025.49 1025.73 1026.04
1010.96 1010.98 1010.61 1010.49 1010.92 1011.18 1011.59 1012.29 1012.74 1013.53 1013.85 1014.45 1014.93 1015.45 1015.65 1015.65 1016.03 1016.34 1016.97 1017.62 1017.77 1018.12 1018.36 1018.58 1018.88 1019.12 1019.47 1019.74 1020.33 1020.78 1020.87 1021.24 1021.67 1021.73 1021.82 1022.26 1022.58 1023.18 1023.62 1024.17 1024.38 1024.52 1024.50 1025.18 1025.40 1025.55 1026.05 1026.15 1026.31
1010.87 1011.05 1011.00 1010.76 1010.93 1011.33 1011.33 1012.31 1013.04 1013.38 1014.09 1014.93 1015.60 1015.76 1015.93 1015.98 1016.15 1016.25 1016.67 1017.50 1017.90 1018.15 1018.51 1018.74 1018.96 1019.16 1019.54 1019.87 1020.40 1020.87 1021.07 1021.38 1021.72 1021.89 1021.96 1022.59 1022.89 1023.24 1023.64 1024.31 1024.57 1024.89 1024.86 1025.27 1025.89 1025.99 1026.27 1026.51 1026.60
1011.50 1011.38 1011.45 1010.91 1011.05 1011.22 1011.41 1012.43 1013.26 1013.66 1014.24 1015.14 1015.66 1015.91 1016.25 1016.23 1016.22 1016.51 1017.03 1017.30 1017.98 1018.11 1018.53 1018.76 1018.95 1019.33 1019.72 1020.05 1020.41 1020.92 1021.24 1021.56 1021.87 1022.11 1022.27 1022.77 1022.99 1023.34 1023.86 1024.30 1024.73 1025.01 1025.37 1025.54 1025.81 1026.04 1026.72 1026.93 1027.13
1012.30 1012.01 1011.59 1011.14 1010.93 1010.96 1011.74 1012.78 1013.29 1013.82 1014.31 1015.05 1015.40 1015.63 1016.12 1016.18 1016.24 1016.35 1016.50 1017.06 1017.73 1018.04 1018.29 1018.70 1018.96 1019.29 1019.82 1020.22 1020.55 1021.07 1021.39 1021.74 1021.99 1022.38 1022.69 1022.80 1023.16 1023.50 1023.79 1024.23 1024.69 1025.02 1025.42 1025.84 1026.02 1026.55 1026.75 1027.32 1027.39
1012.45 1012.01 1011.65 1011.28 1010.93 1011.28 1012.07 1012.73 1013.47 1014.01 1014.32 1014.82 1015.21 1015.34 1015.72 1015.84 1015.58 1015.92 1016.41 1016.98 1017.58 1017.97 1018.05 1018.35 1018.68 1019.12 1019.66 1020.15 1020.72 1021.24 1021.62 1022.02 1022.29 1022.27 1022.82 1022.95 1023.24 1023.49 1023.89 1024.41 1024.67 1025.14 1025.83 1026.43 1026.54 1026.71 1026.94 1027.49 1027.89
1011.93 1011.87 1011.70 1011.24 1010.90 1011.18 1011.75 1012.43 1013.08 1013.85 1014.44 1014.65 1014.79 1015.05 1015.19 1015.22 1015.18 1015.61 1015.98 1016.60 1017.23 1017.62 1017.80 1018.15 1018.62 1019.17 1019.64 1020.27 1021.00 1021.59 1021.87 1022.12 1022.32 1022.26 1022.63 1022.84 1023.31 1023.51 1023.96 1024.44 1025.20 1025.54 1025.90 1026.45 1026.46 1026.92 1027.44 1028.13 1028.23
1011.78 1011.45 1011.67 1011.24 1011.29 1011.57 1011.89 1012.53 1012.76 1013.34 1013.14 1013.49 1013.66 1014.15 1014.33 1014.57 1014.91 1015.19 1015.62 1016.09 1016.47 1016.86 1017.22 1017.70 1018.12 1018.70 1019.16 1019.67 1020.30 1020.94 1021.40 1021.91 1021.93 1022.15 1022.53 1022.77 1023.09 1023.63 1024.24 1024.58 1025.25 1025.58 1026.04 1026.31 1026.65 1026.93 1027.88 1028.21 1028.06
1011.65 1011.36 1011.44 1011.65 1011.23 1011.43 1011.76 1012.45 1012.74 1012.85 1013.07 1013.15 1013.21 1013.07 1013.63 1013.95 1014.29 1014.64 1015.03 1015.29 1015.80 1016.27 1016.70 1017.19 1017.64 1018.20 1018.78 1019.25 1020.06 1020.82 1021.59 1021.91 1021.97 1022.29 1022.57 1022.78 1023.19 1023.74 1024.14 1024.51 1025.12 1025.56 1025.79 1026.53 1026.90 1027.24 1027.58 1027.99 1028.12
1011.26 1011.16 1011.20 1011.55 1011.92 1012.40 1012.42 1012.89 1012.59 1012.46 1012.41 1012.46 1012.43 1012.60 1012.77 1013.13 1013.65 1014.02 1014.48 1014.96 1015.28 1015.96 1016.64 1016.99 1017.43 1018.05 1018.59 1019.01 1019.57 1020.15 1020.59 1021.27 1021.47 1021.76 1022.25 1022.77 1023.25 1023.72 1024.18 1024.61 1024.99 1025.40 1026.03 1026.72 1027.10 1027.30 1027.25 1026.94 1027.55
1010.94 1011.06 1011.44 1011.92 1012.37 1012.76 1012.82 1013.22 1012.24 1012.21 1012.47 1011.81 1011.49 1011.52 1011.80 1012.14 1012.58 1013.07 1013.46 1013.85 1014.63 1015.46 1016.06 1016.57 1017.20 1017.82 1018.13 1018.72 1019.08 1019.68 1020.27 1020.64 1021.08 1021.63 1022.30 1023.00 1023.46 1023.77 1024.06 1024.38 1024.85 1025.50 1026.15 1026.62 1026.86 1026.74 1027.26 1026.52 1027.20
1010.75 1011.34 1012.24 1012.91 1013.40 1013.67 1013.21 1013.27 1012.23 1011.65 1010.66 1010.49 1010.60 1010.48 1010.58 1011.58 1011.89 1012.20 1012.93 1013.85 1014.61 1015.31 1015.72 1016.16 1016.71 1017.20 1017.71 1018.19 1018.71 1019.15 1019.81 1020.51 1021.28 1022.00 1022.43 1023.04 1023.47 1023.89 1024.14 1024.53 1025.08 1025.53 1025.88 1025.96 1026.17 1025.99 1026.93 1026.99 1027.36
1010.90 1012.08 1013.58 1014.46 1014.73 1014.40 1013.66 1013.50 1011.46 1010.22 1010.10 1009.72 1009.90 1009.83 1009.74 1010.39 1011.48 1011.98 1012.62 1013.30 1014.03 1014.70 1015.38 1015.99 1016.21 1016.69 1017.25 1017.80 1018.22 1018.76 1019.32 1020.00 1020.79 1021.39 1021.97 1022.75 1023.10 1023.62 1023.92 1024.27 1024.78 1025.07 1025.37 1025.97 1026.04 1025.80 1026.16 1026.84 1027.22
1011.12 1011.94 1013.66 1014.73 1015.54 1014.91 1013.97 1013.02 1010.82 1009.76 1009.58 1009.21 1009.27 1009.24 1009.52 1010.35 1010.90 1011.44 1011.89 1012.66 1013.52 1014.09 1014.77 1015.41 1015.86 1016.24 1016.67 1017.11 1017.61 1018.21 1018.82 1019.55 1020.24 1020.75 1021.22 1021.91 1022.22 1022.81 1023.58 1024.07 1024.18 1024.87 1024.59 1024.78 1025.10 1025.57 1025.81 1026.32 1026.71
1011.11 1011.93 1012.77 1014.47 1015.89 1015.70 1014.25 1012.68 1010.66 1009.89 1009.75 1009.57 1009.50 1009.69 1009.90 1010.32 1010.75 1011.07 1011.83 1012.26 1013.07 1013.65 1014.02 1014.66 1015.26 1015.65 1016.01 1016.34 1017.02 1017.65 1018.25 1018.91 1019.59 1020.12 1020.82 1021.46 1021.94 1022.43 1022.96 1023.26 1023.13 1023.64 1024.34 1024.62 1025.21 1025.65 1025.95 1026.19 1026.40
1010.45 1011.42 1012.91 1014.34 1015.59 1015.69 1014.54 1013.32 1011.61 1010.23 1009.92 1009.90 1009.71 1009.81 1010.25 1010.80 1011.14 1011.40 1011.88 1012.26 1012.54 1012.91 1013.41 1014.25 1014.67 1014.94 1015.26 1015.96 1016.57 1017.10 1017.66 1018.36 1018.97 1019.48 1020.18 1020.49 1021.02 1021.13 1021.76 1022.57 1023.05 1023.47 1023.82 1024.28 1024.65 1025.20 1025.67 1026.37 1026.36
1010.94 1011.46 1012.81 1014.02 1015.10 1015.41 1015.03 1013.24 1010.93 1010.29 1009.93 1009.89 1009.93 1010.11 1010.38 1010.82 1011.39 1011.42 1011.61 1012.00 1012.39 1012.96 1013.35 1013.68 1014.23 1014.77 1015.11 1015.58 1016.24 1016.80 1017.40 1018.11 1018.66 1018.75 1019.31 1019.44 1020.14 1021.12 1022.12 1022.79 1023.21 1023.65 1024.13 1024.59 1024.90 1024.97 1025.32 1025.71 1026.11
1010.35 1011.15 1012.18 1013.96 1015.39 1015.62 1014.99 1012.53 1010.31 1009.88 1009.71 1009.61 1009.47 1009.88 1010.32 1010.64 1010.94 1011.52 1011.77 1012.10 1012.33 1012.51 1013.05 1013.38 1013.91 1014.42 1014.97 1015.30 1015.91 1016.69 1017.27 1017.71 1018.35 1018.91 1019.48 1019.94 1020.55 1021.11 1022.02 1022.48 1022.72 1023.33 1023.84 1024.18 1024.78 1025.21 1025.18 1025.36 1025.70
Wind_Speed
4 3 2 5 5 6 3 7 2 4 3 4 4 2 2 5 0 1 3 1 13 15 14 15 20 22 23 23 23 23 24 23 22 21 20 19 19 19 20 20 21 20 20 19 18 17 17 17 16
2 3 5 3 6 3 6 4 3 2 1 4 5 1 6 4 3 3 2 7 12 14 13 12 18 20 22 23 22 22 24 23 21 20 19 19 20 19 19 19 20 21 20 21 22 22 24 21 17
1 4 5 5 4 6 6 3 2 1 1 1 4 5 3 3 4 3 2 11 11 14 12 12 18 20 22 21 22 21 21 22 21 21 20 20 19 19 18 19 19 21 20 21 22 21 22 19 19
2 5 5 5 7 5 5 5 2 3 1 4 1 7 4 4 3 3 6 12 6 11 12 15 18 20 21 22 22 19 19 19 20 20 19 19 19 18 16 18 19 20 21 22 22 21 20 18 18
4 3 3 1 3 6 5 2 3 2 1 2 1 3 3 4 5 9 12 9 5 8 10 13 17 20 19 19 21 18 17 19 18 19 18 17 16 16 13 16 17 19 20 19 20 19 19 18 16
4 3 4 1 4 5 3 1 2 1 3 2 6 5 3 7 8 13 13 11 9 3 7 10 17 20 15 14 19 15 16 17 16 18 16 16 14 13 13 13 14 17 16 17 17 17 17 16 15
6 4 3 1 4 5 1 1 2 1 3 3 3 6 2 7 10 12 13 15 16 11 6 10 13 17 15 12 13 11 14 16 17 17 14 13 11 12 12 11 11 12 13 14 15 15 15 15 14
6 5 2 2 3 6 1 2 3 4 1 2 5 6 5 4 12 13 15 14 17 16 11 13 18 9 6 7 10 10 13 15 15 14 13 11 11 11 10 9 9 10 10 15 14 14 14 15 13
3 5 1 3 3 6 1 1 2 1 5 3 3 1 13 14 15 15 13 12 15 16 18 9 11 6 7 7 7 9 11 14 13 11 12 8 4 6 7 8 9 9 11 13 15 14 15 16 15
5 3 7 6 4 4 4 4 1 2 4 4 4 10 16 13 12 12 11 11 13 17 20 15 1 8 8 5 4 6 4 5 5 6 6 4 5 4 5 7 8 10 12 14 15 15 15 11 5
4 4 4 5 9 5 6 4 4 8 1 7 11 14 11 10 11 12 12 12 14 17 13 12 10 8 4 5 4 3 3 3 4 5 5 4 3 4 3 3 3 4 8 5 6 7 6 7 6
2 8 6 4 3 5 6 7 4 4 4 5 13 13 8 9 9 12 15 11 12 10 12 12 13 6 4 2 3 3 5 3 3 4 6 4 3 3 3 3 4 5 3 6 5 5 6 8 7
3 4 4 5 7 0 9 3 5 1 1 10 10 10 10 10 9 10 7 11 9 6 8 13 9 5 5 6 3 3 4 3 4 4 5 3 4 4 4 4 4 4 4 5 6 5 5 7 6
4 3 3 3 0 2 2 1 2 1 6 9 12 7 6 7 8 8 8 8 10 11 11 14 6 5 5 4 6 3 4 3 3 3 4 5 4 4 4 4 4 4 5 4 5 5 5 5 5
2 2 3 1 1 1 8 2 3 6 7 7 7 6 4 5 6 10 9 8 8 6 7 8 6 5 5 5 5 4 3 4 3 3 4 5 4 6 6 5 4 4 4 7 5 5 5 4 4
4 4 2 1 3 2 3 4 1 7 10 7 6 7 5 6 5 4 6 8 7 6 7 6 6 6 6 5 5 4 4 3 2 3 4 6 6 6 6 5 5 4 4 4 4 4 4 4 3
6 2 2 2 5 4 4 2 3 7 8 7 6 6 7 6 6 7 7 7 8 7 8 8 7 7 7 6 5 5 5 3 3 3 3 5 6 6 6 5 5 5 4 4 3 3 3 2 3
1 2 3 2 4 3 3 4 5 8 9 9 8 7 7 9 15 11 9 8 7 7 7 7 6 7 6 5 4 4 4 3 3 3 4 6 5 6 6 5 5 5 5 4 3 3 4 3 1
2 3 2 3 3 5 7 6 12 11 7 9 10 9 9 11 8 8 8 9 9 8 8 9 9 8 7 3 4 3 4 3 2 3 6 6 5 6 6 5 5 4 5 4 4 3 4 2 2
5 3 2 4 1 6 1 7 8 12 16 14 17 13 14 11 8 10 10 10 12 12 12 11 11 11 9 7 4 3 4 2 2 3 5 6 6 6 6 7 5 6 5 6 4 4 2 1 2
3 1 1 3 5 2 3 2 5 5 5 8 9 13 9 12 11 11 12 14 12 13 13 12 12 12 10 8 6 4 4 3 2 2 3 4 6 7 7 7 6 6 5 4 3 4 4 3 1
2 4 2 2 3 2 3 4 4 5 14 9 13 11 13 12 11 12 13 12 14 10 7 8 10 11 9 11 10 7 6 5 4 4 3 4 6 6 6 7 6 6 5 6 4 3 3 4 3
7 3 2 1 1 2 3 3 6 3 6 16 16 15 15 15 15 15 16 16 13 9 9 7 9 10 10 11 10 8 5 3 2 3 7 5 4 6 7 7 8 7 5 5 5 4 2 1 3
3 3 6 4 3 2 3 5 6 6 10 9 15 18 18 14 15 14 11 8 7 6 9 10 12 12 10 11 9 10 8 7 4 3 6 5 4 4 6 7 7 6 6 6 4 4 2 3 3
4 6 3 4 4 6 0 1 10 6 3 8 10 15 18 14 12 11 12 11 9 11 11 9 12 13 12 12 11 8 8 9 10 10 7 8 5 4 8 9 8 6 6 6 4 5 5 5 3
4 7 6 4 3 4 2 5 8 2 5 8 8 8 8 9 10 13 14 12 11 12 11 11 11 11 12 11 11 8 11 8 7 8 7 7 7 7 9 7 7 6 8 9 6 3 4 5 4
5 3 4 8 3 3 4 7 10 2 4 7 4 4 7 7 9 12 10 11 10 11 13 13 12 12 11 13 10 10 9 10 9 10 9 7 7 7 11 11 12 11 8 6 5 3 4 4 5
1 6 3 3 3 3 4 4 6 9 4 3 6 5 2 3 5 6 8 10 10 11 10 10 12 14 11 10 10 8 9 9 10 10 12 13 12 15 14 11 7 8 7 7 6 4 3 5 4
2 1 5 5 4 5 1 7 8 7 5 4 5 7 6 7 7 7 8 9 10 8 10 11 10 10 8 9 6 7 7 9 10 11 12 15 12 9 7 6 6 4 4 3 3 4 5 7 6
4 7 6 6 3 1 4 8 4 7 5 5 7 4 6 7 7 6 5 7 9 11 10 11 10 10 7 7 7 6 7 9 8 6 6 7 7 9 7 5 7 6 6 5 6 6 6 8 7
Wind_Direction
107 75 63 46 57 62 277 261 260 283 301 354 37 359 112 42 54 221 339 233 136 142 139 138 137 132 128 125 124 121 120 119 119 122 120 117 114 113 112 109 106 105 100 96 96 99 113 115 111
120 90 44 83 83 65 267 255 285 305 342 302 76 36 51 70 48 81 101 135 137 135 133 139 136 130 127 124 123 124 124 124 123 122 123 120 115 112 109 106 105 104 100 95 95 96 101 108 106
115 44 83 92 130 189 220 223 331 212 270 321 109 65 60 359 58 118 276 140 125 136 132 143 135 131 126 125 124 126 130 127 127 125 125 117 116 115 110 106 105 102 98 95 95 98 98 98 97
87 10 38 103 226 278 230 270 325 254 173 46 139 70 65 2 343 148 116 134 128 134 142 143 139 132 131 131 128 130 126 123 124 122 123 118 118 114 107 105 102 100 99 92 90 94 100 97 94
40 51 74 18 272 249 243 321 297 193 116 16 76 108 64 44 82 67 66 61 113 148 153 145 144 135 133 131 131 129 125 124 124 120 118 118 118 110 98 96 100 101 95 97 93 94 102 101 99
35 98 64 23 255 263 297 62 13 290 188 159 83 85 29 101 61 71 62 57 49 57 161 150 131 114 112 126 116 122 120 120 120 116 115 118 116 107 98 94 101 105 111 101 95 95 99 107 104
124 84 196 211 263 289 226 103 153 308 82 335 121 91 78 76 91 85 76 68 58 36 93 128 95 91 87 92 94 114 117 120 118 113 118 113 105 103 102 101 96 91 91 101 101 95 92 89 97
109 87 27 271 271 278 261 127 107 68 53 345 5 153 149 126 113 92 85 82 83 64 68 95 99 92 59 77 86 104 120 117 107 115 118 115 110 109 107 99 95 85 88 89 99 96 90 84 84
107 58 302 259 258 260 68 104 347 104 83 53 343 291 126 127 109 92 89 90 99 101 80 62 54 89 98 96 89 97 101 100 109 111 111 89 95 100 98 98 95 101 85 84 92 94 84 81 74
95 141 226 205 235 249 114 81 132 107 109 70 94 111 132 141 133 125 119 118 118 116 120 135 24 65 74 115 117 89 100 100 97 105 109 113 121 124 104 107 101 88 82 83 84 82 82 79 71
175 214 227 250 241 151 131 142 149 127 333 195 171 147 142 152 156 138 128 134 131 129 132 144 147 141 177 148 144 154 116 97 102 125 131 131 112 97 105 84 74 79 91 72 69 76 67 72 73
176 246 208 262 173 155 155 143 106 137 211 122 149 152 141 154 149 146 145 147 154 147 151 163 159 172 162 135 121 93 116 120 137 148 144 140 128 118 90 93 91 88 80 94 88 77 76 69 70
219 265 278 230 181 169 127 168 143 41 22 115 125 143 156 172 158 144 145 133 160 161 155 167 175 176 154 139 124 121 120 136 173 168 167 157 154 135 115 98 101 101 102 90 80 80 77 75 69
257 358 277 127 303 328 105 293 207 157 114 124 144 152 179 176 173 139 136 142 164 167 177 172 170 157 147 134 127 151 136 158 182 182 170 172 143 125 110 109 107 93 93 87 95 95 86 84 81
298 41 9 162 218 183 140 350 23 143 130 132 161 161 188 216 181 176 160 151 174 168 168 175 152 154 148 144 140 152 157 154 166 170 123 127 126 121 124 119 101 108 94 100 95 85 83 87 80
40 60 284 223 223 253 106 284 90 148 146 158 191 149 185 207 202 184 170 147 164 155 175 164 172 164 157 154 146 154 163 152 133 107 117 133 127 124 119 118 114 116 112 114 111 106 84 83 78
8 196 283 328 216 104 73 287 197 166 163 168 202 205 183 192 191 206 179 163 169 178 165 170 166 163 161 157 146 144 138 144 138 129 142 138 138 135 128 127 133 131 117 112 105 66 90 61 49
212 27 310 237 244 73 96 261 176 194 172 189 202 224 204 197 211 194 173 164 172 188 171 163 156 153 150 137 114 102 111 125 155 143 157 149 144 136 127 130 129 125 107 98 95 114 59 71 20
186 130 254 274 289 169 212 222 193 196 198 185 207 210 217 219 208 192 181 167 171 182 174 176 163 166 151 139 140 138 167 164 154 157 154 145 149 140 138 125 124 119 122 145 120 81 82 33 358
248 152 267 288 278 189 147 227 187 189 205 201 195 206 215 217 191 182 179 180 185 189 188 177 177 169 173 168 144 144 146 179 148 146 158 156 149 145 143 139 135 125 125 105 99 97 103 199 202
251 147 146 247 324 40 60 355 159 214 201 205 219 220 219 208 195 198 193 195 189 193 191 184 180 175 176 157 130 88 88 79 100 142 159 167 157 157 144 128 129 133 114 113 104 118 164 183 288
244 216 146 9 42 266 87 278 262 208 216 216 221 209 215 211 197 196 198 202 203 198 179 184 173 176 175 165 171 169 176 159 194 169 146 145 155 139 131 134 135 113 107 117 144 176 181 166 119
219 211 53 327 136 33 345 85 265 133 231 231 225 223 213 209 201 200 201 200 197 173 177 167 160 176 176 183 184 180 169 145 122 119 136 135 134 139 140 133 122 129 128 141 142 128 224 85 106
145 96 45 42 74 46 262 129 280 195 206 218 221 229 223 195 204 203 195 172 179 158 165 169 173 186 183 186 185 185 173 144 136 165 156 154 135 137 134 133 135 143 146 144 138 141 114 95 135
93 71 339 4 19 216 248 87 239 266 308 234 213 219 224 204 186 186 177 177 172 177 176 181 183 193 194 197 194 184 171 174 190 185 172 165 154 162 165 153 152 146 129 122 163 141 153 171 168
183 144 157 200 187 257 280 235 257 183 287 286 256 245 216 182 186 193 188 181 182 180 179 187 195 199 192 193 203 182 186 190 195 182 173 186 172 154 154 151 143 148 149 180 165 165 161 168 163
177 150 169 101 15 60 253 292 301 87 345 320 334 177 200 188 190 195 169 182 177 178 189 188 196 205 199 203 200 196 184 182 191 176 173 165 153 153 158 170 169 167 185 176 156 183 177 172 171
154 158 86 22 158 227 290 283 242 316 318 309 318 306 240 192 182 177 172 177 192 193 192 196 201 208 206 193 194 194 188 195 184 170 176 172 175 176 176 173 151 169 183 177 175 172 159 200 210
92 150 62 117 130 163 221 265 214 244 280 308 247 247 240 206 188 189 190 191 194 194 199 204 205 211 204 197 178 181 174 182 182 180 187 185 177 165 149 141 165 169 154 123 198 196 190 210 210
173 196 151 128 218 122 155 268 253 244 263 262 282 222 209 217 200 194 194 184 196 203 198 202 207 214 205 188 170 190 173 166 172 171 144 122 128 128 146 154 146 152 165 191 209 218 213 208 211